When you browse on this site, cookies collect data to enhance your experience and personalize the content and advertising you see.
Visit our Privacy Policy to learn more. By continuing to use the site, you agree to this use of cookies and data.
  • Em Portugal
  • Lista de países
  • Para 7 dias
  • Temperatura da água
  • Mapas de satélite
  • Mapa do tempo
  • Widgets de tempo
  • user-avatar
    Iniciar Sessão

    Previsão horária em Saida

    Hoje, 16 Dezembro, Domingo

    Tempo Temperatura Precipitação Vento Pressão Humidade
    00:00 +16°C° 0 mm 5 m/s 764 mmHg 64%
    01:00 +15°C° 0 mm 5 m/s 764 mmHg 65%
    02:00 +15°C° 0 mm 4 m/s 764 mmHg 71%
    03:00 +15°C° 0 mm 4 m/s 764 mmHg 70%
    04:00 +15°C° 0 mm 4 m/s 763 mmHg 70%
    05:00 +15°C° 0 mm 5 m/s 763 mmHg 70%
    06:00 +15°C° 0 mm 5 m/s 763 mmHg 69%
    07:00 +16°C° 0 mm 5 m/s 763 mmHg 69%
    08:00 +18°C° 0 mm 4 m/s 763 mmHg 71%
    09:00 +19°C° 0 mm 4 m/s 763 mmHg 66%
    10:00 +21°C° 0 mm 4 m/s 763 mmHg 61%
    11:00 +22°C° 0 mm 4 m/s 762 mmHg 56%
    12:00 +22°C° 0 mm 4 m/s 762 mmHg 56%
    13:00 +23°C° 0 mm 4 m/s 762 mmHg 55%
    14:00 +23°C° 0 mm 4 m/s 762 mmHg 54%
    15:00 +22°C° 0 mm 3 m/s 762 mmHg 59%
    16:00 +20°C° 0 mm 3 m/s 762 mmHg 64%
    17:00 +19°C° 0 mm 3 m/s 762 mmHg 69%
    18:00 +19°C° 0 mm 3 m/s 762 mmHg 69%
    19:00 +18°C° 0 mm 3 m/s 762 mmHg 70%
    20:00 +18°C° 0 mm 2 m/s 762 mmHg 71%
    21:00 +17°C° 0 mm 2 m/s 762 mmHg 72%
    22:00 +17°C° 0 mm 2 m/s 762 mmHg 74%
    23:00 +17°C° 0 mm 2 m/s 762 mmHg 75%

    Amanhã, 17 Dezembro, Segunda-feira

    Tempo Temperatura Precipitação Vento Pressão Humidade
    00:00 +16°C° 0 mm 2 m/s 762 mmHg 76%
    01:00 +16°C° 0 mm 2 m/s 762 mmHg 77%
    02:00 +16°C° 0 mm 2 m/s 762 mmHg 79%
    03:00 +15°C° 0 mm 2 m/s 762 mmHg 80%
    04:00 +15°C° 0 mm 2 m/s 762 mmHg 81%
    05:00 +15°C° 0 mm 2 m/s 762 mmHg 82%
    06:00 +16°C° 0 mm 3 m/s 762 mmHg 79%
    07:00 +16°C° 0 mm 3 m/s 762 mmHg 77%
    08:00 +17°C° 0 mm 3 m/s 762 mmHg 74%
    09:00 +18°C° 0.4 mm 3 m/s 762 mmHg 68%
    10:00 +19°C° 0.4 mm 3 m/s 762 mmHg 61%
    11:00 +20°C° 0.4 mm 4 m/s 762 mmHg 55%
    12:00 +20°C° 0.2 mm 4 m/s 762 mmHg 56%
    13:00 +20°C° 0.2 mm 5 m/s 761 mmHg 57%
    14:00 +20°C° 0.2 mm 6 m/s 761 mmHg 59%
    15:00 +19°C° 0.7 mm 6 m/s 761 mmHg 66%
    16:00 +17°C° 0.7 mm 6 m/s 762 mmHg 73%
    17:00 +16°C° 0.7 mm 6 m/s 762 mmHg 80%
    18:00 +16°C° 0.7 mm 6 m/s 762 mmHg 82%
    19:00 +15°C° 0.7 mm 5 m/s 762 mmHg 83%
    20:00 +15°C° 0.7 mm 5 m/s 763 mmHg 84%
    21:00 +15°C° 0.4 mm 5 m/s 763 mmHg 84%
    22:00 +15°C° 0.4 mm 5 m/s 763 mmHg 83%
    23:00 +15°C° 0.4 mm 5 m/s 763 mmHg 82%

    Depois de amanhã, 18 Dezembro, Terça-feira

    Tempo Temperatura Precipitação Vento Pressão Humidade
    00:00 +15°C° 0.2 mm 5 m/s 763 mmHg 81%
    01:00 +15°C° 0.2 mm 5 m/s 763 mmHg 80%
    02:00 +14°C° 0.2 mm 4 m/s 763 mmHg 79%
    03:00 +14°C° 0.2 mm 4 m/s 763 mmHg 80%
    04:00 +14°C° 0.2 mm 4 m/s 763 mmHg 80%
    05:00 +14°C° 0.2 mm 4 m/s 764 mmHg 80%
    06:00 +14°C° 0.2 mm 4 m/s 764 mmHg 80%
    07:00 +15°C° 0.2 mm 4 m/s 764 mmHg 80%
    08:00 +15°C° 0.2 mm 4 m/s 765 mmHg 80%
    09:00 +17°C° 0.2 mm 4 m/s 765 mmHg 77%
    10:00 +17°C° 0.2 mm 5 m/s 765 mmHg 74%
    11:00 +19°C° 0.2 mm 5 m/s 765 mmHg 71%
    12:00 +19°C° 0.4 mm 5 m/s 765 mmHg 72%
    13:00 +19°C° 0.4 mm 5 m/s 764 mmHg 72%
    14:00 +19°C° 0.4 mm 5 m/s 764 mmHg 72%
    15:00 +19°C° 0.5 mm 5 m/s 764 mmHg 75%
    16:00 +17°C° 0.5 mm 5 m/s 764 mmHg 78%
    17:00 +17°C° 0.5 mm 5 m/s 764 mmHg 81%
    18:00 +17°C° 0.4 mm 5 m/s 764 mmHg 81%
    19:00 +16°C° 0.4 mm 5 m/s 765 mmHg 81%
    20:00 +16°C° 0.4 mm 5 m/s 765 mmHg 81%
    21:00 +16°C° 0.3 mm 5 m/s 765 mmHg 81%
    22:00 +16°C° 0.3 mm 5 m/s 765 mmHg 81%
    23:00 +15°C° 0.3 mm 5 m/s 765 mmHg 81%

    19 Dezembro, Quarta-feira

    Tempo Temperatura Precipitação Vento Pressão Humidade
    00:00 +15°C° 0.4 mm 5 m/s 764 mmHg 80%
    01:00 +15°C° 0.4 mm 5 m/s 764 mmHg 79%
    02:00 +14°C° 0.4 mm 5 m/s 763 mmHg 78%
    03:00 +14°C° 0.3 mm 5 m/s 763 mmHg 77%
    04:00 +14°C° 0.3 mm 5 m/s 763 mmHg 75%
    05:00 +14°C° 0.3 mm 6 m/s 762 mmHg 74%
    06:00 +14°C° 0.7 mm 6 m/s 762 mmHg 72%
    07:00 +15°C° 0.7 mm 6 m/s 763 mmHg 69%
    08:00 +15°C° 0.7 mm 6 m/s 763 mmHg 67%
    09:00 +16°C° 1.8 mm 6 m/s 763 mmHg 71%
    10:00 +16°C° 1.8 mm 7 m/s 762 mmHg 75%
    11:00 +16°C° 1.8 mm 7 m/s 762 mmHg 79%
    12:00 +16°C° 1.7 mm 7 m/s 762 mmHg 80%
    13:00 +16°C° 1.7 mm 7 m/s 761 mmHg 80%
    14:00 +16°C° 1.7 mm 7 m/s 761 mmHg 81%
    15:00 +16°C° 1.3 mm 7 m/s 761 mmHg 83%
    16:00 +15°C° 1.3 mm 6 m/s 761 mmHg 85%
    17:00 +15°C° 1.3 mm 6 m/s 762 mmHg 88%
    18:00 +14°C° 0.9 mm 5 m/s 762 mmHg 89%
    19:00 +14°C° 0.9 mm 5 m/s 762 mmHg 90%
    20:00 +14°C° 0.9 mm 5 m/s 762 mmHg 91%
    21:00 +14°C° 1.2 mm 5 m/s 762 mmHg 91%
    22:00 +14°C° 1.2 mm 5 m/s 762 mmHg 91%
    23:00 +13°C° 1.2 mm 5 m/s 762 mmHg 91%

    20 Dezembro, Quinta-feira

    Tempo Temperatura Precipitação Vento Pressão Humidade
    00:00 +13°C° 0.9 mm 4 m/s 762 mmHg 91%
    01:00 +13°C° 0.9 mm 4 m/s 762 mmHg 92%
    02:00 +13°C° 0.9 mm 3 m/s 762 mmHg 93%
    03:00 +13°C° 0.5 mm 3 m/s 762 mmHg 93%
    04:00 +14°C° 0.5 mm 3 m/s 763 mmHg 94%
    05:00 +14°C° 0.5 mm 3 m/s 763 mmHg 94%
    06:00 +15°C° 0.1 mm 2 m/s 763 mmHg 93%
    07:00 +15°C° 0.1 mm 2 m/s 764 mmHg 91%
    08:00 +15°C° 0.1 mm 2 m/s 765 mmHg 90%
    09:00 +16°C° 0 mm 2 m/s 765 mmHg 82%
    10:00 +17°C° 0 mm 2 m/s 765 mmHg 73%
    11:00 +18°C° 0 mm 2 m/s 765 mmHg 65%
    12:00 +18°C° 0 mm 2 m/s 765 mmHg 63%
    13:00 +18°C° 0 mm 2 m/s 765 mmHg 60%
    14:00 +19°C° 0 mm 2 m/s 765 mmHg 58%
    15:00 +18°C° 0 mm 2 m/s 765 mmHg 64%
    16:00 +17°C° 0 mm 2 m/s 765 mmHg 69%
    17:00 +16°C° 0 mm 2 m/s 766 mmHg 75%
    18:00 +15°C° 0 mm 2 m/s 766 mmHg 75%
    19:00 +15°C° 0 mm 2 m/s 766 mmHg 76%
    20:00 +15°C° 0 mm 2 m/s 767 mmHg 76%
    21:00 +14°C° 0 mm 2 m/s 767 mmHg 77%
    22:00 +14°C° 0 mm 2 m/s 767 mmHg 77%
    23:00 +14°C° 0 mm 2 m/s 767 mmHg 78%

    21 Dezembro, Sexta-feira

    Tempo Temperatura Precipitação Vento Pressão Humidade
    00:00 +14°C° 0 mm 2 m/s 767 mmHg 80%
    01:00 +14°C° 0 mm 2 m/s 767 mmHg 82%
    02:00 +14°C° 0 mm 2 m/s 767 mmHg 84%
    03:00 +14°C° 0 mm 2 m/s 767 mmHg 85%
    04:00 +13°C° 0 mm 2 m/s 767 mmHg 86%
    05:00 +13°C° 0 mm 2 m/s 767 mmHg 87%
    06:00 +14°C° 0 mm 2 m/s 767 mmHg 85%
    07:00 +15°C° 0 mm 2 m/s 767 mmHg 83%
    08:00 +16°C° 0 mm 2 m/s 768 mmHg 81%
    09:00 +17°C° 0 mm 2 m/s 768 mmHg 75%
    10:00 +18°C° 0 mm 2 m/s 767 mmHg 69%
    11:00 +19°C° 0 mm 3 m/s 767 mmHg 63%
    12:00 +19°C° 0 mm 3 m/s 767 mmHg 63%
    13:00 +19°C° 0 mm 3 m/s 766 mmHg 62%
    14:00 +19°C° 0 mm 3 m/s 766 mmHg 62%
    15:00 +18°C° 0 mm 2 m/s 766 mmHg 68%
    16:00 +17°C° 0 mm 2 m/s 766 mmHg 73%
    17:00 +16°C° 0 mm 2 m/s 766 mmHg 79%
    18:00 +16°C° 0 mm 2 m/s 766 mmHg 81%
    19:00 +15°C° 0 mm 2 m/s 767 mmHg 82%
    20:00 +15°C° 0 mm 2 m/s 767 mmHg 84%
    21:00 +15°C° 0 mm 2 m/s 767 mmHg 84%
    22:00 +14°C° 0 mm 2 m/s 766 mmHg 84%
    23:00 +14°C° 0 mm 2 m/s 766 mmHg 85%
    Mostrar mais